Time,TemperatureF,DewpointF,PressureIn,WindDirection,WindDirectionDegrees,WindSpeedMPH,WindSpeedGustMPH,Humidity,HourlyPrecipIn,Conditions,Clouds,dailyrainin,SoftwareType,DateUTC
2013-06-29 01:00:00,67.0,67.0,29.57,South,180,20.0,23.0,100,-99.99,,,-99.99,,2013-06-29 05:00:00,
2013-06-29 01:41:00,67.0,67.0,29.57,South,180,20.0,23.0,100,-99.99,,,-99.99,,2013-06-29 05:41:00,
2013-06-29 01:51:00,67.0,67.0,29.57,South,180,20.0,23.0,100,-99.99,,,-99.99,,2013-06-29 05:51:00,
2013-06-29 02:00:00,67.0,67.0,29.56,South,190,17.0,18.0,100,-99.99,,,-99.99,,2013-06-29 06:00:00,
2013-06-29 02:33:00,67.0,67.0,29.56,South,190,17.0,18.0,100,-99.99,,,-99.99,,2013-06-29 06:33:00,
2013-06-29 02:43:00,67.0,67.0,29.56,South,190,17.0,18.0,100,-99.99,,,-99.99,,2013-06-29 06:43:00,
2013-06-29 02:53:00,67.0,67.0,29.56,South,190,17.0,18.0,100,-99.99,,,-99.99,,2013-06-29 06:53:00,
2013-06-29 04:00:00,66.0,66.0,29.54,SSE,160,16.0,18.0,100,-99.99,,,-99.99,,2013-06-29 08:00:00,
2013-06-29 04:33:00,66.0,66.0,29.54,SSE,160,16.0,18.0,100,-99.99,,,-99.99,,2013-06-29 08:33:00,
2013-06-29 04:43:00,66.0,66.0,29.54,SSE,160,16.0,18.0,100,-99.99,,,-99.99,,2013-06-29 08:43:00,
2013-06-29 04:52:00,66.0,66.0,29.54,SSE,160,16.0,18.0,100,-99.99,,,-99.99,,2013-06-29 08:52:00,
2013-06-29 05:00:00,67.0,67.0,29.52,SSE,150,23.0,-999.0,100,-99.99,,,-99.99,,2013-06-29 09:00:00,
2013-06-29 05:33:00,67.0,67.0,29.52,SSE,150,23.0,-999.0,100,-99.99,,,-99.99,,2013-06-29 09:33:00,
2013-06-29 05:42:00,67.0,67.0,29.52,SSE,150,23.0,-999.0,100,-99.99,,,-99.99,,2013-06-29 09:42:00,
2013-06-29 05:53:00,67.0,67.0,29.52,SSE,150,23.0,-999.0,100,-99.99,,,-99.99,,2013-06-29 09:53:00,
2013-06-29 06:00:00,69.0,69.0,29.57,SW,220,17.0,21.0,100,-99.99,,,-99.99,,2013-06-29 10:00:00,
2013-06-29 06:33:00,69.0,69.0,29.57,SW,220,17.0,21.0,100,-99.99,,,-99.99,,2013-06-29 10:33:00,
2013-06-29 06:42:00,69.0,69.0,29.57,SW,220,17.0,21.0,100,-99.99,,,-99.99,,2013-06-29 10:42:00,
2013-06-29 06:52:00,69.0,69.0,29.57,SW,220,17.0,21.0,100,-99.99,,,-99.99,,2013-06-29 10:52:00,
2013-06-29 07:00:00,67.0,67.0,29.57,South,190,23.0,24.0,100,-99.99,,,-99.99,,2013-06-29 11:00:00,
2013-06-29 07:33:00,67.0,67.0,29.57,South,190,23.0,24.0,100,-99.99,,,-99.99,,2013-06-29 11:33:00,
2013-06-29 07:43:00,67.0,67.0,29.57,South,190,23.0,24.0,100,-99.99,,,-99.99,,2013-06-29 11:43:00,
2013-06-29 07:53:00,67.0,67.0,29.57,South,190,23.0,24.0,100,-99.99,,,-99.99,,2013-06-29 11:53:00,
2013-06-29 08:00:00,67.0,67.0,29.59,SSW,200,17.0,18.0,100,-99.99,,,-99.99,,2013-06-29 12:00:00,
2013-06-29 08:34:00,67.0,67.0,29.59,SSW,200,17.0,18.0,100,-99.99,,,-99.99,,2013-06-29 12:34:00,
2013-06-29 08:43:00,67.0,67.0,29.59,SSW,200,17.0,18.0,100,-99.99,,,-99.99,,2013-06-29 12:43:00,
2013-06-29 08:52:00,67.0,67.0,29.59,SSW,200,17.0,18.0,100,-99.99,,,-99.99,,2013-06-29 12:52:00,
2013-06-29 10:00:00,67.0,67.0,29.61,SSW,200,20.0,21.0,100,-99.99,,,-99.99,,2013-06-29 14:00:00,
2013-06-29 10:44:00,67.0,67.0,29.61,SSW,200,20.0,21.0,100,-99.99,,,-99.99,,2013-06-29 14:44:00,
2013-06-29 10:53:00,67.0,67.0,29.61,SSW,200,20.0,21.0,100,-99.99,,,-99.99,,2013-06-29 14:53:00,
2013-06-29 11:00:00,67.0,67.0,29.63,South,190,20.0,21.0,100,-99.99,,,-99.99,,2013-06-29 15:00:00,
2013-06-29 11:33:00,67.0,67.0,29.63,South,190,20.0,21.0,100,-99.99,,,-99.99,,2013-06-29 15:33:00,
2013-06-29 11:42:00,67.0,67.0,29.63,South,190,20.0,21.0,100,-99.99,,,-99.99,,2013-06-29 15:42:00,
2013-06-29 11:53:00,67.0,67.0,29.63,South,190,20.0,21.0,100,-99.99,,,-99.99,,2013-06-29 15:53:00,
2013-06-29 12:00:00,67.0,67.0,29.63,South,190,20.0,21.0,100,-99.99,,,-99.99,,2013-06-29 16:00:00,
2013-06-29 12:33:00,67.0,67.0,29.63,South,190,20.0,21.0,100,-99.99,,,-99.99,,2013-06-29 16:33:00,
2013-06-29 12:43:00,67.0,67.0,29.63,South,190,20.0,21.0,100,-99.99,,,-99.99,,2013-06-29 16:43:00,
2013-06-29 12:53:00,67.0,67.0,29.63,South,190,20.0,21.0,100,-99.99,,,-99.99,,2013-06-29 16:53:00,
2013-06-29 13:00:00,67.0,67.0,29.65,South,190,21.0,21.0,100,-99.99,,,-99.99,,2013-06-29 17:00:00,
2013-06-29 13:33:00,67.0,67.0,29.65,South,190,21.0,21.0,100,-99.99,,,-99.99,,2013-06-29 17:33:00,
2013-06-29 13:42:00,67.0,67.0,29.65,South,190,21.0,21.0,100,-99.99,,,-99.99,,2013-06-29 17:42:00,
2013-06-29 13:52:00,67.0,67.0,29.65,South,190,21.0,21.0,100,-99.99,,,-99.99,,2013-06-29 17:52:00,
2013-06-29 14:00:00,67.0,67.0,29.66,South,190,22.0,23.0,100,-99.99,,,-99.99,,2013-06-29 18:00:00,
2013-06-29 14:33:00,67.0,67.0,29.66,South,190,22.0,23.0,100,-99.99,,,-99.99,,2013-06-29 18:33:00,
2013-06-29 14:43:00,67.0,67.0,29.66,South,190,22.0,23.0,100,-99.99,,,-99.99,,2013-06-29 18:43:00,
2013-06-29 14:52:00,67.0,67.0,29.66,South,190,22.0,23.0,100,-99.99,,,-99.99,,2013-06-29 18:52:00,
2013-06-29 15:00:00,68.0,68.0,29.66,South,190,21.0,23.0,100,-99.99,,,-99.99,,2013-06-29 19:00:00,
2013-06-29 15:34:00,68.0,68.0,29.66,South,190,21.0,23.0,100,-99.99,,,-99.99,,2013-06-29 19:34:00,
2013-06-29 15:43:00,68.0,68.0,29.66,South,190,21.0,23.0,100,-99.99,,,-99.99,,2013-06-29 19:43:00,
2013-06-29 15:53:00,68.0,68.0,29.66,South,190,21.0,23.0,100,-99.99,,,-99.99,,2013-06-29 19:53:00,
2013-06-29 17:00:00,67.0,67.0,29.68,South,180,25.0,27.0,100,-99.99,,,-99.99,,2013-06-29 21:00:00,
2013-06-29 19:00:00,68.0,68.0,29.68,South,190,24.0,-999.0,100,-99.99,,,-99.99,,2013-06-29 23:00:00,
2013-06-29 19:33:00,68.0,68.0,29.68,South,190,24.0,-999.0,100,-99.99,,,-99.99,,2013-06-29 23:33:00,
2013-06-29 19:42:00,68.0,68.0,29.68,South,190,24.0,-999.0,100,-99.99,,,-99.99,,2013-06-29 23:42:00,
2013-06-29 19:52:00,68.0,68.0,29.68,South,190,24.0,-999.0,100,-99.99,,,-99.99,,2013-06-29 23:52:00,
2013-06-29 20:00:00,68.0,68.0,29.70,South,190,20.0,21.0,100,-99.99,,,-99.99,,2013-06-30 00:00:00,
2013-06-29 20:33:00,68.0,68.0,29.70,South,190,20.0,21.0,100,-99.99,,,-99.99,,2013-06-30 00:33:00,
2013-06-29 20:42:00,68.0,68.0,29.70,South,190,20.0,21.0,100,-99.99,,,-99.99,,2013-06-30 00:42:00,
2013-06-29 20:52:00,68.0,68.0,29.70,South,190,20.0,21.0,100,-99.99,,,-99.99,,2013-06-30 00:52:00,
2013-06-29 21:00:00,68.0,68.0,29.72,South,190,24.0,-999.0,100,-99.99,,,-99.99,,2013-06-30 01:00:00,
2013-06-29 21:33:00,68.0,68.0,29.72,South,190,24.0,-999.0,100,-99.99,,,-99.99,,2013-06-30 01:33:00,
2013-06-29 21:43:00,68.0,68.0,29.72,South,190,24.0,-999.0,100,-99.99,,,-99.99,,2013-06-30 01:43:00,
2013-06-29 21:53:00,68.0,68.0,29.72,South,190,24.0,-999.0,100,-99.99,,,-99.99,,2013-06-30 01:53:00,
2013-06-29 22:00:00,68.0,68.0,29.74,SSW,200,20.0,21.0,100,-99.99,,,-99.99,,2013-06-30 02:00:00,
2013-06-29 22:33:00,68.0,68.0,29.74,SSW,200,20.0,21.0,100,-99.99,,,-99.99,,2013-06-30 02:33:00,
2013-06-29 22:43:00,68.0,68.0,29.74,SSW,200,20.0,21.0,100,-99.99,,,-99.99,,2013-06-30 02:43:00,
2013-06-29 22:53:00,68.0,68.0,29.74,SSW,200,20.0,21.0,100,-99.99,,,-99.99,,2013-06-30 02:53:00,
2013-06-29 23:00:00,68.0,68.0,29.74,SSW,200,20.0,21.0,100,-99.99,,,-99.99,,2013-06-30 03:00:00,
2013-06-29 23:33:00,68.0,68.0,29.74,SSW,200,20.0,21.0,100,-99.99,,,-99.99,,2013-06-30 03:33:00,
2013-06-29 23:43:00,68.0,68.0,29.74,SSW,200,20.0,21.0,100,-99.99,,,-99.99,,2013-06-30 03:43:00,
2013-06-29 23:53:00,68.0,68.0,29.74,SSW,200,20.0,21.0,100,-99.99,,,-99.99,,2013-06-30 03:53:00,